This demonstration page uses our WeatherBlox Daily Observations layout. Learn more.

Left ArrowRight Arrow

Hourly Observations for June 20, 2021

Temp ( °F °C ) Dew Point ( °F °C ) Humidity (%) Winds ( mph kmh ) Pressure ( in mb ) Visibility ( mi km ) Precip ( " mm )
12:11 am 00:11 Cloudy with Light Rain 71 21.7 69 20.6 94 94 E 7 11 29.84 1011 10 16 0.03 0.76
12:27 am 00:27 Cloudy with Light Rain 71 21.7 69 20.6 94 94 VRB 6 9 29.83 1010 8 13 0.05 1.27
12:48 am 00:48 Cloudy 72 22 70 21 94 94 E 6 9 29.83 1010 10 16 0.08 2.03
12:53 am 00:53 Cloudy 71 21.7 70 21.1 96 96 ESE 5 7 29.83 1010 10 16 0.09 2.29
1:11 am 01:11 Cloudy 72 22.2 70 21.1 94 94 ESE 6 9 29.81 1010 10 16 0.02 0.51
1:39 am 01:39 Cloudy with Light Rain 73 22.8 71 21.7 94 94 SSE 12 19 29.81 1009 10 16 0.06 1.52
1:53 am 01:53 Cloudy 73 22.8 71 21.7 94 94 SSE 12 19 29.81 1009 10 16 0.08 2.03
2:01 am 02:01 Cloudy 74 23.3 71 21.7 91 91 SSE 9 15 29.80 1009 10 16 0.00 0.00
2:22 am 02:22 Cloudy 73 22.8 71 21.7 94 94 SSE 6 9 29.80 1009 10 16 0.03 0.76
2:53 am 02:53 Mostly Cloudy 73 22.8 71 21.7 94 94 SE 5 7 29.79 1009 10 16 0.06 1.52
3:53 am 03:53 Cloudy 72 22.2 70 21.1 94 94 E 7 11 29.77 1008 10 16 0.02 0.51
4:42 am 04:42 Cloudy with Light Rain 73 22.8 70 21.1 90 90 SSE 10 17 29.76 1008 7 11 0.04 1.02
4:53 am 04:53 Cloudy 72 22.2 70 21.1 94 94 S 8 13 29.77 1008 9 14 0.05 1.27
5:22 am 05:22 Cloudy with Light Rain 71 21.7 70 21.1 96 96 SSE 5 7 29.75 1008 6 10 0.02 0.51
5:53 am 05:53 Cloudy 71 21.7 70 21.1 96 96 SSE 6 9 29.76 1008 7 11 0.04 1.02
6:37 am 06:37 Cloudy 71 21.7 69 20.6 94 94 S 5 7 29.76 1008 10 16 0.04 1.02
6:53 am 06:53 Cloudy with Mist and Fog 71 21.7 69 20.6 94 94 SSE 5 7 29.78 1008 5 8 0.05 1.27
7:08 am 07:08 Cloudy with Mist and Fog 71 21.7 69 20.6 94 94 SSE 5 7 29.77 1008 4 6 0.00 0.00
7:25 am 07:25 Cloudy with Mist and Fog 71 21.7 70 21.1 96 96 SSE 5 7 29.78 1009 2 3 0.00 0.00
7:34 am 07:34 Cloudy with Mist and Fog 71 21.7 69 20.6 94 94 SSE 5 7 29.78 1009 2 2 0.00 0.00
7:44 am 07:44 Cloudy with Mist and Fog 71 21.7 69 20.6 94 94 SE 5 7 29.78 1009 2 3 0.00 0.00
7:53 am 07:53 Cloudy with Mist and Fog 71 21.7 70 21.1 96 96 SE 5 7 29.78 1009 2 3 0.00 0.00
8:28 am 08:28 Cloudy with Mist and Fog 71 21.7 70 21.1 96 96 Calm 29.78 1009 3 5 0.02 0.51
8:34 am 08:34 Cloudy with Mist and Fog 71 21.7 70 21.1 96 96 SSE 3 6 29.79 1009 3 4 0.02 0.51
8:53 am 08:53 Cloudy with Mist and Fog 72 22.2 71 21.7 97 97 Calm 29.79 1009 3 5 0.03 0.76
9:04 am 09:04 Cloudy with Mist and Fog 71 21.7 70 21.1 96 96 SW 3 6 29.79 1009 3 4 0.01 0.25
9:20 am 09:20 Cloudy with Light Rain 72 22.2 71 21.7 97 97 Calm 29.79 1009 3 5 0.02 0.51
9:53 am 09:53 Cloudy with Mist and Fog 72 22.2 70 21.1 94 94 W 3 6 29.80 1009 6 10 0.03 0.76
10:53 am 10:53 Cloudy 75 23.9 71 21.7 88 88 NW 5 7 29.79 1009 10 16 0.03 0.76
11:53 am 11:53 Cloudy with Light Rain 74 23.3 71 21.7 91 91 NNW 9 15 29.82 1010 10 16 0.02 0.51
11:57 am 11:57 Cloudy 75 23.9 71 21.7 88 88 NNW 8 13 29.82 1010 10 16 0.00 0.00
12:35 pm 12:35 Cloudy 77 25 71 21.7 82 82 NNW 8 13 29.81 1010 10 16 0.01 0.25
12:53 pm 12:53 Cloudy with Light Rain 76 24.4 71 21.7 85 85 NW 10 17 29.83 1010 9 14 0.02 0.51
1:18 pm 13:18 Cloudy 77 25 72 22.2 85 85 NW 8 13 29.81 1010 10 16 0.01 0.25
1:53 pm 13:53 Mostly Cloudy 79 26.1 72 22.2 79 79 WNW 8 13 29.83 1010 10 16 0.02 0.51
2:53 pm 14:53 Mostly Cloudy 82 27.8 71 21.7 69 69 WNW 9 15 29.82 1010 10 16 0.00 0.00
3:53 pm 15:53 Cloudy with Light Rain 80 26.7 70 21.1 71 71 W 9 15 29.83 1010 10 16 0.00 0.00
4:53 pm 16:53 Cloudy 84 28.9 69 20.6 61 61 W 14 22 29.83 1010 10 16 0.00 0.00
5:53 pm 17:53 Partly Cloudy 84 28.9 69 20.6 61 61 W 13 20 29.83 1010 10 16 0.00 0.00
6:53 pm 18:53 Mostly Sunny 84 28.9 68 20 59 59 W 13 20 29.85 1011 10 16 0.00 0.00
7:53 pm 19:53 Sunny 83 28.3 69 20.6 63 63 W 7 11 29.86 1011 10 16 0.00 0.00
8:53 pm 20:53 Clear 80 26.7 70 21.1 71 71 SW 5 7 29.87 1012 10 16 0.00 0.00
9:53 pm 21:53 Clear 78 25.6 70 21.1 76 76 SW 3 6 29.88 1012 10 16 0.00 0.00
10:53 pm 22:53 Clear 76 24.4 70 21.1 82 82 SW 3 6 29.89 1012 10 16 0.00 0.00
11:53 pm 23:53 Clear 75 23.9 70 21.1 84 84 SW 6 9 29.88 1012 10 16 0.00 0.00

Powered by AerisWeather